Tracking 19800 objects as of 23-Jul-2019
HD Live streaming from Space Station
objects crossing your sky now

IRIDIUM 39

Track IRIDIUM 39 now!
10-day predictions
IRIDIUM 39 is classified as:


NORAD ID: 25042
Int'l Code: 1997-069D
Perigee: 732.8 km
Apogee: 756.9 km
Inclination: 86.4 °
Period: 99.6 minutes
Semi major axis: 7115 km
RCS: 4.3221 m2 (large)
Launch date: November 9, 1997
Source: United States (US)
Launch site: AIR FORCE WESTERN TEST RANGE (AFWTR)
aabbcc
Your satellite tracking list
Your tracking list is empty




NASA's NSSDC Master Catalog

Two Line Element Set (TLE):
1 25042U 97069D   19203.72881849 +.00000091 +00000-0 +19620-4 0  9998
2 25042 086.3901 052.5897 0016937 289.7966 070.1410 14.46321576137105
Source of the keplerian elements: AFSPC